Regional Weather Roundup
Issued by NWS Kansas City/Pleasant Hill, MO

Home | Current Version | Previous Version | Text Only | Print | Product List | Glossary On
Versions: 1 2 3 4 5 6 7 8 9 10 11 12 13 14 15 16 17 18 19 20 21 22 23 24 25 26 27 28 29 30 31 32 33 34 35 36 37 38 39 40 41 42 43 44 45 46 47 48 49 50
000
ASUS43 KEAX 281610
RWREAX

WEATHER ROUNDUP FOR EASTERN KANSAS AND NORTHWEST MISSOURI
NATIONAL WEATHER SERVICE KANSAS CITY/PLEASANT HILL MO
1100 AM CDT MON JUL 28 2014

KSZ040-057-103>105-MOZ028-029-037-043-281700-
...KANSAS CITY METROPOLITAN AREA...

CITY           SKY/WX    TMP DP  RH WIND       PRES   REMARKS
K.C. INTL      PTSUNNY   73  61  65 N8        30.23R
K.C. DOWNTOWN  MOSUNNY   75  61  61 NW7       30.22R
LEES SUMMIT    MOSUNNY   73  59  61 N12       30.23R
OLATHE - IXD   MOSUNNY   75  60  59 NW12      30.24S
OLATHE - OJC   SUNNY     73  58  59 N8        30.23R
LAWRENCE       MOSUNNY   76  60  57 NW8       30.24S

$$

MOZ001>008-011>017-020>025-030>033-038>040-044>046-053-054-281700-
...NORTHERN AND CENTRAL MISSOURI...

CITY           SKY/WX    TMP DP  RH WIND       PRES   REMARKS
ST. JOSEPH     PTSUNNY   70  62  76 N5        30.24R
MOSBY          SUNNY     70  61  73 NW8       30.22R
WHITEMAN AFB   MOSUNNY   73  52  47 NW10      30.20R
CLINTON        MOSUNNY   75  64  69 CALM      30.21R
SEDALIA        MOSUNNY   73  62  68 NW9       30.20R
WARSAW         NOT AVBL
MARSHALL       MOSUNNY   75  64  69 N8        30.20R
CHILLICOTHE      N/A     73  59  61 N5        30.21R
KIRKSVILLE     PTSUNNY   69  60  73 N9        30.20S

$$

MOZ041-047>049-056>058-063>065-088>090-097-281700-
...EASTERN AND SOUTHERN MISSOURI...

CITY           SKY/WX    TMP DP  RH WIND       PRES   REMARKS
ST. LOUIS INTL PTSUNNY   74  61  63 N9        30.12R
SPIRIT OF STL  PTSUNNY   75  61  61 NW8       30.11S
COLUMBIA       PTSUNNY   75  61  61 NW12      30.16S
JEFFERSON CITY PTSUNNY   75  61  61 VRB6      30.15R
MEXICO         PTSUNNY   75  66  73 N9G16     30.16
ROLLA          MOSUNNY   76  59  55 N9        30.14R
LEBANON        MOSUNNY   75  59  57 N8        30.19R
OSAGE BEACH    MOSUNNY   75  59  57 NW7       30.17R
SPRINGFIELD    SUNNY     76  58  53 NW9       30.20R
BRANSON          N/A     77  57  50 N6        30.22R
NEVADA         SUNNY     75  59  57 N8        30.23S
JOPLIN         SUNNY     77  58  51 N9        30.23R
WEST PLAINS    SUNNY     77  59  53 VRB7      30.17S

$$

IAZ060-094-KSZ022-034>040-054-083-096-NEZ052-066-093-281700-
...KANSAS...SOUTHEAST NEBRASKA AND IOWA...

CITY           SKY/WX    TMP DP  RH WIND       PRES   REMARKS
TOPEKA         MOSUNNY   77  58  51 NW15      30.26R
MANHATTAN      MOSUNNY   75  57  53 N8        30.29R
EMPORIA        SUNNY     73  57  57 VRB6      30.28R
CHANUTE        SUNNY     76  60  57 N9        30.26R
WICHITA        MOSUNNY   78  58  49 N7        30.30R
OMAHA          PTSUNNY   70  57  63 N10       30.27S
LINCOLN        MOSUNNY   74  54  49 N13       30.30R
FALLS CITY     PTSUNNY   73  60  63 N9        30.25S
LAMONI         PTSUNNY   70  58  65 N6        30.23R
DES MOINES     MOSUNNY   73  53  49 N7        30.21S

$$



USA.gov is the U.S. government's official web portal to all federal, state and local government web resources and services.